Stations météo

Publicité
Marseille/Marignane, France (7650): Température de l'air & dewpoint: 07.08.2020 14:00:00 - 13.08.2020 14:00:00 (CEST)Marseille/Marignane, France (7650): Température de l'air 5cm: 07.08.2020 14:00:00 - 13.08.2020 14:00:00 (CEST)Marseille/Marignane, France (7650): Température de l'air -20cm & Température de l'air -100cm: 07.08.2020 14:00:00 - 13.08.2020 14:00:00 (CEST)Marseille/Marignane, France (7650): Vitesse du vent & gusts: 07.08.2020 14:00:00 - 13.08.2020 14:00:00 (CEST)Marseille/Marignane, France (7650): Direction du vent: 07.08.2020 14:00:00 - 13.08.2020 14:00:00 (CEST)Marseille/Marignane, France (7650): reduced air pressure: 07.08.2020 14:00:00 - 13.08.2020 14:00:00 (CEST)Marseille/Marignane, France (7650): visibility: 07.08.2020 14:00:00 - 13.08.2020 14:00:00 (CEST)Marseille/Marignane, France (7650): Ensoleillement: 07.08.2020 14:00:00 - 13.08.2020 14:00:00 (CEST)Marseille/Marignane, France (7650): Quantités de précipitations: 07.08.2020 14:00:00 - 13.08.2020 14:00:00 (CEST)
Date & Time tt [°C] td [°C] tt 5cm [°C] tt -20cm [°C] tt -100cm [°C] ff [km/h] ff [knt] fx [km/h] fx [knt] dd ppp [hPa] vv [km] sd [min] rr [mm]
13.08.2020 14:00:00 - - - - - - - - - - - - - -
13.08.2020 13:00:00 - - - - - - - - - - - - - -
13.08.2020 12:00:00 - - - - - - - - - - - - - -
13.08.2020 11:00:00 - - - - - - - - - - - - - -
13.08.2020 10:00:00 - - - - - - - - - - - - - -
13.08.2020 09:00:00 - - - - - - - - - - - - - -
13.08.2020 08:00:00 - - - - - - - - - - - - - -
13.08.2020 07:00:00 - - - - - - - - - - - - - -
13.08.2020 06:00:00 - - - - - - - - - - - - - -
13.08.2020 05:00:00 - - - - - - - - - - - - - -
13.08.2020 04:00:00 - - - - - - - - - - - - - -
13.08.2020 03:00:00 - - - - - - - - - - - - - -
13.08.2020 02:00:00 - - - - - - - - - - - - - -
13.08.2020 01:00:00 - - - - - - - - - - - - - -
13.08.2020 00:00:00 - - - - - - - - - - - - - -
12.08.2020 23:00:00 - - - - - - - - - - - - - -
12.08.2020 22:00:00 - - - - - - - - - - - - - -
12.08.2020 21:00:00 - - - - - - - - - - - - - -
12.08.2020 20:00:00 - - - - - - - - - - - - - -
12.08.2020 19:00:00 - - - - - - - - - - - - - -
12.08.2020 18:00:00 - - - - - - - - - - - - - -
12.08.2020 17:00:00 - - - - - - - - - - - - - -
12.08.2020 16:00:00 - - - - - - - - - - - - - -
12.08.2020 15:00:00 - - - - - - - - - - - - - -
12.08.2020 14:00:00 - - - - - - - - - - - - - -
12.08.2020 13:00:00 32,1 16,4 35,5 27,7 23,1 18 10 24 13 SW 1015,4 31 27 0,0
12.08.2020 12:00:00 31,3 12,6 33,9 27,5 23,1 12 6 21 11 S 1015,6 20 2 0,0
12.08.2020 11:00:00 30,0 13,3 33,7 27,4 23,1 6 3 14 8 SSW 1015,9 41 38 0,0
12.08.2020 10:00:00 28,7 15,6 30,5 27,4 23,1 5 3 10 5 NW 1016,0 41 29 0,0
12.08.2020 09:00:00 27,0 15,1 23,6 27,6 23,1 3 1 9 5 N 1015,9 20 60 0,0
12.08.2020 08:00:00 22,5 16,5 18,3 27,8 23,1 8 4 11 6 ESE 1015,6 19 53 0,0
12.08.2020 07:00:00 21,7 15,5 17,4 28,1 23,1 9 5 13 7 ESE 1015,0 34 0 0,0
12.08.2020 06:00:00 21,4 15,9 17,2 28,4 23,1 11 6 13 7 ESE 1014,9 32 0 0,0
12.08.2020 05:00:00 21,5 17,3 17,3 28,7 23,1 6 3 11 6 ESE 1015,1 32 0 0,0
12.08.2020 04:00:00 20,7 17,3 18,1 29,0 23,1 10 5 14 8 SE 1015,4 31 0 0,0
12.08.2020 03:00:00 21,9 17,9 18,8 29,3 23,1 7 4 12 7 SSE 1015,5 35 0 0,0
12.08.2020 02:00:00 22,0 18,4 18,8 29,6 23,1 10 5 11 6 SE 1015,5 34 0 0,0
12.08.2020 01:00:00 23,3 19,0 19,3 29,9 23,1 2 1 9 5 S 1015,7 35 0 0,0
12.08.2020 00:00:00 23,9 19,4 20,0 30,2 23,1 6 3 10 6 SE 1015,4 41 0 0,0
11.08.2020 23:00:00 24,2 19,9 20,7 30,5 23,1 7 4 9 5 SE 1015,3 44 0 0,0
11.08.2020 22:00:00 24,7 20,4 21,9 30,7 23,1 6 3 14 8 SSW 1015,4 47 0 0,0
11.08.2020 21:00:00 26,0 21,0 24,7 30,8 23,1 10 6 19 11 SSW 1015,0 50 0 0,0
11.08.2020 20:00:00 27,3 20,4 28,1 30,9 23,1 14 8 21 12 S 1014,7 56 60 0,0
11.08.2020 19:00:00 29,1 19,4 32,0 30,7 23,0 16 9 25 13 SSW 1014,9 37 60 0,0
11.08.2020 18:00:00 29,9 18,7 34,8 30,4 23,1 15 8 29 16 SSW 1014,9 48 60 0,0
11.08.2020 17:00:00 30,0 17,8 36,9 30,0 23,1 18 10 34 18 S 1015,1 40 60 0,0
11.08.2020 16:00:00 30,4 19,7 37,7 29,5 23,0 21 12 34 19 S 1015,4 41 60 0,0
11.08.2020 15:00:00 30,8 17,8 38,1 28,9 23,0 24 13 34 18 SSW 1015,5 41 60 0,0
11.08.2020 14:00:00 31,3 17,6 38,5 28,4 23,1 22 12 34 18 S 1015,3 46 60 0,0
11.08.2020 13:00:00 31,9 17,8 38,3 28,0 23,0 16 9 24 13 SW 1015,5 23 60 0,0
11.08.2020 12:00:00 31,6 17,5 36,9 27,7 23,0 11 6 21 11 W 1015,6 20 60 0,0
11.08.2020 11:00:00 29,1 20,0 35,6 27,6 23,0 9 5 14 8 W 1015,5 49 60 0,0
11.08.2020 10:00:00 27,7 20,5 31,5 27,6 23,0 8 4 14 7 N 1015,5 20 60 0,0
11.08.2020 09:00:00 26,1 20,4 24,9 27,7 23,0 4 2 12 7 E 1015,8 29 60 0,0
11.08.2020 08:00:00 23,9 20,4 20,1 27,9 23,0 8 4 12 7 E 1015,5 20 58 0,0
11.08.2020 07:00:00 22,7 20,2 20,0 28,1 23,0 6 3 13 7 SE 1015,3 20 0 0,0
11.08.2020 06:00:00 23,3 20,6 21,3 28,4 23,0 7 4 14 7 NE 1015,2 26 0 0,0
11.08.2020 05:00:00 23,6 20,7 22,0 28,6 23,0 10 6 22 12 NNW 1015,1 26 0 0,0
11.08.2020 04:00:00 23,8 22,1 19,3 28,8 23,0 9 5 17 9 WSW 1015,0 24 0 0,0
11.08.2020 03:00:00 22,8 17,9 20,1 29,1 23,0 16 9 20 11 SE 1014,1 53 0 0,0
11.08.2020 02:00:00 23,2 19,8 20,0 29,4 23,0 11 6 18 10 SE 1014,7 51 0 0,0
11.08.2020 01:00:00 23,4 21,1 20,2 29,7 23,0 9 5 11 6 SE 1015,0 38 0 0,0
11.08.2020 00:00:00 24,4 22,1 20,7 29,9 23,0 9 5 11 6 SE 1015,4 41 0 0,0
10.08.2020 23:00:00 25,6 21,7 22,8 30,2 23,0 3 1 14 8 WNW 1016,0 59 0 0,0
10.08.2020 22:00:00 25,9 23,0 24,3 30,3 23,0 9 5 14 8 NNW 1016,2 52 0 0,0
10.08.2020 21:00:00 26,1 22,4 25,8 30,4 23,0 11 6 21 11 SSW 1015,2 60 0 0,0
10.08.2020 20:00:00 28,0 18,1 27,9 30,5 23,0 14 8 26 14 S 1014,1 41 32 0,0
10.08.2020 19:00:00 28,7 19,1 31,9 30,3 23,0 18 10 29 16 S 1014,0 20 60 0,0
10.08.2020 18:00:00 29,3 20,7 34,8 30,0 23,0 19 10 32 17 S 1014,1 36 60 0,0
10.08.2020 17:00:00 28,9 21,7 35,9 29,6 23,0 23 13 37 20 SSW 1014,2 34 60 0,0
10.08.2020 16:00:00 30,0 19,4 36,4 29,0 23,0 23 13 37 20 SSW 1014,0 20 60 0,0
10.08.2020 15:00:00 31,8 18,4 39,7 28,5 23,0 19 11 32 17 S 1013,6 20 60 0,0
10.08.2020 14:00:00 31,8 18,0 38,6 28,0 23,0 16 9 26 14 S 1013,8 20 60 0,0
10.08.2020 13:00:00 29,7 20,3 32,8 27,7 23,0 16 9 25 13 S 1014,5 19 16 0,0
10.08.2020 12:00:00 29,9 16,0 33,1 27,4 23,0 18 10 29 16 WSW 1014,9 39 44 0,0
10.08.2020 11:00:00 30,2 18,6 33,6 27,3 23,0 13 7 16 9 W 1014,5 17 60 0,0
10.08.2020 10:00:00 26,1 19,5 30,1 27,3 23,0 8 4 13 7 N 1014,6 16 60 0,0
10.08.2020 09:00:00 25,7 17,4 23,8 27,5 23,0 2 1 8 5 E 1014,7 17 54 0,0
10.08.2020 08:00:00 22,9 14,2 20,5 27,7 23,0 6 4 11 6 SSE 1014,5 20 11 0,0
10.08.2020 07:00:00 22,1 15,2 19,7 27,9 23,0 9 5 14 7 SE 1014,3 32 0 0,0
10.08.2020 06:00:00 21,4 16,1 18,0 28,2 23,0 10 6 16 8 SE 1014,2 20 0 0,0
10.08.2020 05:00:00 21,1 14,5 18,2 28,5 23,0 8 4 15 8 SSE 1014,3 36 0 0,0
10.08.2020 04:00:00 21,6 15,2 17,8 28,8 23,0 3 2 8 4 SSE 1014,3 29 0 0,0
10.08.2020 03:00:00 22,3 17,2 18,2 29,2 23,0 8 5 11 6 SE 1014,2 25 0 0,0
10.08.2020 02:00:00 23,2 18,5 18,7 29,4 22,9 5 3 10 5 SSE 1014,0 20 0 0,0
10.08.2020 01:00:00 22,7 18,2 19,9 29,7 23,0 9 5 13 7 SSE 1013,9 24 0 0,0
10.08.2020 00:00:00 23,8 21,9 21,1 30,0 23,0 3 1 9 5 WSW 1014,2 10 0 0,0
09.08.2020 23:00:00 24,1 22,0 20,8 30,3 23,0 8 4 15 8 NW 1015,1 9 0 0,0
09.08.2020 22:00:00 24,2 21,9 22,0 30,5 22,9 7 4 19 10 WSW 1015,0 12 0 0,0
09.08.2020 21:00:00 26,6 19,0 23,9 30,6 23,0 8 4 16 9 WSW 1014,9 29 0 0,0
09.08.2020 20:00:00 28,4 16,7 28,0 30,6 22,9 9 5 20 11 S 1014,4 47 9 0,0
09.08.2020 19:00:00 30,1 16,5 31,5 30,4 23,0 16 9 25 13 W 1014,8 42 43 0,0
09.08.2020 18:00:00 31,7 12,0 37,6 30,1 22,9 10 6 26 14 SSW 1014,8 39 60 0,0
09.08.2020 17:00:00 32,3 12,5 38,9 29,6 22,9 19 10 30 16 S 1014,9 35 60 0,0
09.08.2020 16:00:00 33,0 13,1 39,6 29,1 22,9 24 13 34 18 SSW 1014,8 34 60 0,0
09.08.2020 15:00:00 34,5 12,8 41,3 28,5 23,0 26 14 34 19 SSW 1015,1 38 60 0,0
09.08.2020 14:00:00 34,6 11,7 39,6 27,9 23,0 22 12 32 17 SSW 1015,6 15 60 0,0
09.08.2020 13:00:00 32,2 17,7 37,6 27,4 23,0 11 6 22 12 W 1016,1 16 60 0,0
09.08.2020 12:00:00 31,3 14,9 36,8 27,1 22,9 7 4 16 8 WNW 1016,4 41 60 0,0
09.08.2020 11:00:00 29,2 14,2 35,9 27,0 22,9 10 5 16 9 WNW 1016,7 38 60 0,0
09.08.2020 10:00:00 27,7 18,7 31,1 27,1 22,9 7 4 15 8 N 1017,0 19 60 0,0
09.08.2020 09:00:00 25,6 18,8 23,8 27,2 22,9 5 3 11 6 ENE 1017,3 20 60 0,0
09.08.2020 08:00:00 22,1 17,7 18,0 27,5 23,0 4 2 8 5 SSE 1017,4 27 60 0,0
09.08.2020 07:00:00 20,2 17,2 17,2 27,7 22,9 7 4 11 6 SE 1016,8 25 0 0,0
09.08.2020 06:00:00 20,6 17,8 16,5 28,0 22,9 3 2 8 5 SSE 1016,7 16 0 0,0
09.08.2020 05:00:00 20,4 18,5 18,1 28,3 22,9 6 3 13 7 S 1016,6 13 0 0,0
09.08.2020 04:00:00 20,7 19,5 18,2 28,6 23,0 10 5 12 7 ESE 1016,6 6 0 0,0
09.08.2020 03:00:00 21,6 20,6 19,6 28,8 22,9 8 4 12 6 NE 1017,3 4,4 0 0,0
09.08.2020 02:00:00 22,9 21,2 21,5 29,1 23,0 7 4 11 6 N 1017,4 9 0 0,0
09.08.2020 01:00:00 23,1 21,2 21,5 29,3 22,9 3 2 9 5 NNE 1017,6 14 0 0,0
09.08.2020 00:00:00 23,0 21,1 21,9 29,6 22,9 4 2 15 8 SW 1017,5 17 0 0,0
08.08.2020 23:00:00 23,1 21,4 21,9 29,8 23,0 8 5 16 9 SSW 1017,5 15 0 0,0
08.08.2020 22:00:00 23,1 21,5 22,7 30,0 22,9 10 5 25 13 SSE 1017,1 16 0 0,0
08.08.2020 21:00:00 22,9 21,5 22,7 30,1 23,0 21 11 26 14 S 1016,6 13 0 0,0
08.08.2020 20:00:00 25,7 20,9 26,8 30,1 22,9 20 11 31 17 SSW 1016,2 37 60 0,0
08.08.2020 19:00:00 27,8 20,6 32,0 29,9 23,0 18 10 27 14 SSW 1015,6 20 60 0,0
08.08.2020 18:00:00 29,2 19,5 35,4 29,5 22,9 16 9 26 14 S 1016,1 30 60 0,0
08.08.2020 17:00:00 30,7 19,4 37,2 29,0 22,9 22 12 31 17 SSW 1016,2 32 60 0,0
08.08.2020 16:00:00 31,8 16,1 37,1 28,3 22,9 17 9 27 14 WSW 1016,6 31 60 0,0
08.08.2020 15:00:00 29,5 20,4 37,1 27,6 22,9 18 10 26 14 W 1017,3 34 60 0,0
08.08.2020 14:00:00 30,3 18,4 38,4 26,9 22,9 10 6 16 8 W 1017,6 19 60 0,0
08.08.2020 13:00:00 29,9 12,3 37,2 26,5 23,0 10 5 15 8 W 1018,1 20 60 0,0
08.08.2020 12:00:00 28,6 13,3 35,8 26,1 22,9 6 3 11 6 WNW 1018,8 20 60 0,0
08.08.2020 11:00:00 26,3 15,4 31,9 25,9 22,9 6 3 16 8 WNW 1019,1 20 60 0,0
08.08.2020 10:00:00 25,3 13,2 30,4 26,0 22,9 8 4 14 7 WNW 1019,1 34 60 0,0
08.08.2020 09:00:00 24,9 8,8 24,5 26,2 22,9 4 2 10 5 SSE 1019,1 20 60 0,0
08.08.2020 08:00:00 22,4 8,9 16,3 26,4 23,0 4 2 14 7 ESE 1018,9 46 60 0,0
08.08.2020 07:00:00 18,7 8,9 14,4 26,7 22,9 5 3 12 6 SE 1019,0 57 1 0,0
08.08.2020 06:00:00 18,2 9,0 14,9 27,1 23,0 8 5 15 8 ESE 1019,0 58 0 0,0
08.08.2020 05:00:00 17,9 9,3 15,0 27,4 23,0 10 6 16 9 ESE 1018,6 59 0 0,0
08.08.2020 04:00:00 18,7 9,7 15,9 27,7 23,0 11 6 14 8 SE 1019,3 58 0 0,0
08.08.2020 03:00:00 20,0 9,5 15,3 28,1 23,0 5 3 8 5 S 1019,7 58 0 0,0
08.08.2020 02:00:00 21,0 10,5 15,5 28,4 22,9 5 3 10 5 ESE 1020,0 58 0 0,0
08.08.2020 01:00:00 20,5 11,1 16,7 28,8 22,9 5 3 17 9 SSE 1019,8 59 0 0,0
08.08.2020 00:00:00 21,7 9,9 16,9 29,1 22,9 6 3 14 8 SE 1019,7 59 0 0,0
07.08.2020 23:00:00 23,5 9,5 17,5 29,5 22,9 5 3 10 5 SSE 1019,2 52 0 0,0
07.08.2020 22:00:00 24,0 13,2 17,7 29,7 23,0 0 0 8 5 N 1018,5 56 0 0,0
07.08.2020 21:00:00 25,6 14,1 22,3 29,8 22,9 5 3 20 11 SSW 1017,8 52 29 0,0
07.08.2020 20:00:00 27,7 15,0 28,9 29,8 22,9 13 7 16 9 W 1017,4 58 60 0,0
07.08.2020 19:00:00 30,1 8,5 33,5 29,6 23,0 15 8 23 13 W 1017,3 57 60 0,0
07.08.2020 18:00:00 31,5 8,5 36,6 29,1 22,9 13 7 21 11 W 1017,4 39 60 0,0
07.08.2020 17:00:00 31,7 7,4 37,1 28,6 22,9 14 7 23 12 SW 1017,7 20 60 0,0
07.08.2020 16:00:00 31,6 9,2 38,0 28,0 22,9 16 9 22 12 W 1018,0 18 60 0,0
07.08.2020 15:00:00 31,5 11,8 37,9 27,3 22,9 16 9 26 14 W 1018,2 33 60 0,0
07.08.2020 14:00:00 30,3 13,6 36,9 26,7 22,9 20 11 26 14 WSW 1018,2 35 60 0,0

tt = Température de l'air
td = dewpoint
tt 5cm = Température de l'air 5cm
tt -20cm = Température de l'air -20cm
tt -100cm = Température de l'air -100cm
ff = Vitesse du vent
fx = gusts
dd = Direction du vent
ppp = reduced air pressure
vv = visibility
sd = Ensoleillement
rr = Quantités de précipitations

stations d'obs. à proximité